[[{"header":{"parameterUnit":"m.s-1","parameterCategory":1,"la1":30.2991,"la2":30.254,"lo1":-89.0895,"lo2":-89.0444,"dy":0.0017,"dx":0.0017,"nx":28,"ny":28,"refTime":"2025-02-24T09:00:00:Z","depth":0,"parameterNumber":2,"parameterNumberName":"U-component_of_WINDS"},"data":[0,0,0,0,0,0,0,0,0,0,0,0,0,0,0,0,0,0,0,0,0,0,0,0,0,0,0,0,0,0,0,0,0,0,0,0,0,0,0,0,0,0,0,0,0,0,0,0,0,0,0,0,0,0,0,0,0,0,1.6153,1.6152,0,1.6117,1.6116,1.6116,1.6069,1.6068,1.6067,1.6067,1.6028,1.6027,1.6027,0,0,0,0,0,0,0,0,0,0,0,0,0,1.6181,1.6181,1.6153,1.6152,1.6152,1.6117,1.6116,1.6116,1.6069,1.6068,1.6067,1.6066,1.6028,1.6027,1.6027,0,0,0,0,0,0,0,0,0,0,0,0,0,1.6159,1.6181,1.6153,1.6125,1.6122,1.6117,1.6116,1.6115,1.6069,1.6068,1.6067,1.6066,1.6028,1.6027,1.6027,1.6047,0,0,1.6025,1.6025,0,0,0,0,0,0,0,0,1.616,1.6158,1.6129,1.6127,1.6123,1.6096,1.6112,1.6092,1.607,1.6089,1.6067,1.6065,1.6051,1.6049,1.6044,1.6045,1.6043,1.6025,1.6025,1.6025,1.6025,0,0,0,0,0,0,0,1.6162,1.6159,1.6138,1.6129,1.6125,1.6113,1.6109,1.6108,1.6077,1.6087,1.6084,1.608,1.6049,1.6045,1.6043,1.6042,1.6025,1.6025,1.6025,1.6024,1.6057,1.6058,0,0,0,0,0,0,1.6168,1.6161,1.614,1.6137,1.614,1.6114,1.6109,1.6106,1.6077,1.6071,1.6081,1.6078,1.6046,1.6044,1.6042,1.6063,1.6025,1.6024,1.6024,1.6056,1.6058,1.6059,0,0,0,0,0,0,1.6169,1.6167,1.6141,1.6148,1.6144,1.6114,1.6112,1.6106,1.6101,1.6072,1.6066,1.6083,1.6045,1.6042,1.6046,1.6061,1.6024,1.6024,1.6055,1.6057,1.6058,1.6105,0,0,0,0,0,0,1.617,1.6167,1.6174,1.6149,1.6144,1.6146,1.6112,1.6106,1.6101,1.6097,1.6072,1.6067,1.6044,1.6047,1.6045,1.6059,1.6023,1.6053,1.6056,1.6058,1.6102,1.6108,1.6113,0,0,0,0,0,1.6171,1.6188,1.6175,1.6173,1.6152,1.6147,1.6144,1.6119,1.6102,1.6109,1.6091,1.6067,1.606,1.6048,1.6046,1.6059,1.6052,1.6055,1.6057,1.6099,1.6107,1.6113,0,0,0,0,0,0,1.6215,1.6184,1.6169,1.6179,1.6166,1.6139,1.6147,1.6128,1.6119,1.6115,1.6083,1.6078,1.6086,1.6073,1.606,1.6077,1.6052,1.6055,1.6085,1.6092,1.6097,1.61,1.6023,0,0,0,0,0,1.6227,1.6226,1.6198,1.621,1.6204,1.6177,1.6174,1.6155,1.6141,1.6135,1.6116,1.6103,1.6097,1.6094,1.6087,1.61,1.6094,1.6109,1.6115,1.6119,1.6121,1.6128,1.6134,1.6068,1.6068,1.6067,0,0,1.6249,1.6232,1.6233,1.6218,1.6206,1.6205,1.6173,1.6173,1.6172,1.6134,1.6137,1.6123,1.6106,1.6114,1.6117,1.6104,1.6139,1.6123,1.6127,1.6126,1.6131,1.6137,1.6143,1.6069,1.6069,1.6069,0,0,1.629,1.6277,1.6285,1.6274,1.6257,1.6239,1.6241,1.6217,1.6207,1.6209,1.6181,1.618,1.6171,1.6159,1.6152,1.6191,1.6169,1.6189,1.6219,1.6225,1.623,1.6235,1.6248,1.6253,1.6192,1.6192,1.6192,0,1.632,1.6318,1.6292,1.6294,1.6288,1.6256,1.6263,1.6254,1.6235,1.6232,1.6217,1.6206,1.6192,1.6197,1.6207,1.6203,1.6204,1.6191,1.6232,1.6236,1.624,1.6252,1.6257,1.6194,1.6194,1.6194,1.6194,0,1.6356,1.6355,1.6364,1.6347,1.6342,1.6348,1.6322,1.632,1.6303,1.6286,1.6289,1.6271,1.6261,1.6261,1.6243,1.6264,1.6257,1.6238,1.6212,1.6249,1.626,1.6265,1.6198,1.6197,1.6196,1.6196,0,0,1.6422,1.6392,1.6396,1.6388,1.6367,1.6366,1.637,1.636,1.6359,1.6348,1.635,1.6344,1.6326,1.6319,1.63,1.6306,1.6337,1.6286,1.6285,1.6295,1.6359,1.6372,1.6378,1.6323,1.6324,1.6324,1.636,0,1.6459,1.6464,1.6441,1.6452,1.6451,1.642,1.6424,1.6411,1.6396,1.6393,1.6376,1.6373,1.635,1.6345,1.635,1.6332,1.6349,1.6329,1.6324,1.6324,1.6329,1.6384,1.6399,1.6433,1.6364,1.6365,1.6365,0,1.6501,1.6493,1.6504,1.6483,1.6482,1.6486,1.6475,1.6473,1.6458,1.6447,1.6439,1.6418,1.642,1.6396,1.6399,1.6386,1.6383,1.6374,1.6374,1.6372,1.6346,1.6383,1.6443,1.6448,1.6372,1.6371,1.6371,0,1.6548,1.654,1.6546,1.654,1.6516,1.6519,1.6509,1.6493,1.6489,1.648,1.6477,1.6468,1.6463,1.6457,1.6434,1.6419,1.6439,1.6413,1.6429,1.643,1.6434,1.6434,1.6494,1.6433,1.6433,1.6433,1.6433,0,1.6591,1.6599,1.6566,1.657,1.6578,1.6552,1.656,1.6547,1.6534,1.6534,1.6507,1.6508,1.6478,1.6475,1.6457,1.6462,1.646,1.645,1.6445,1.6452,1.6454,1.6449,1.6446,1.6434,1.6434,1.6434,1.6433,0,1.6644,1.6623,1.6627,1.6604,1.6599,1.6606,1.6586,1.6588,1.6573,1.6573,1.6572,1.6547,1.6542,1.6519,1.6509,1.6497,1.6507,1.6498,1.6513,1.6509,1.6526,1.6525,1.6585,1.6591,1.6527,1.6528,1.6528,0,1.6672,1.6678,1.6656,1.6655,1.6646,1.6644,1.664,1.6615,1.6612,1.6596,1.66,1.6594,1.6587,1.6581,1.6562,1.6554,1.6544,1.6566,1.6542,1.6549,1.6543,1.6543,1.6543,1.657,1.6571,1.6572,1.6572,0,1.6724,1.6714,1.6709,1.6701,1.6698,1.669,1.6681,1.6681,1.6653,1.6651,1.6646,1.6641,1.6632,1.6626,1.6615,1.6604,1.6583,1.658,1.6583,1.659,1.6598,1.6593,1.6525,1.6578,1.6578,1.6577,1.6577,1.6577,1.6765,1.6769,1.6755,1.6751,1.6741,1.6734,1.6735,1.6719,1.6715,1.6706,1.6691,1.6689,1.6675,1.6658,1.6649,1.6647,1.6635,1.664,1.6641,1.6642,1.6645,1.6599,1.6645,1.6645,1.6644,1.6644,1.6644,0,1.6816,1.6805,1.6802,1.679,1.6787,1.6769,1.6758,1.6757,1.6755,1.6744,1.6739,1.6734,1.6728,1.6709,1.6701,1.6703,1.6693,1.6702,1.6701,1.6698,1.6657,1.6654,1.6709,1.6709,1.6709,1.6709,1.6709,1.6709,1.6841,1.6847,1.6835,1.6835,1.6825,1.6823,1.6818,1.6811,1.6802,1.6798,1.6793,1.6781,1.6766,1.6757,1.6751,1.6746,1.6744,1.6755,1.6747,1.6708,1.6701,1.6695,1.6693,1.6755,1.6755,1.6788,1.6789,1.6789]},{"header":{"parameterUnit":"m.s-1","parameterCategory":1,"la1":30.2991,"la2":30.254,"lo1":-89.0895,"lo2":-89.0444,"dy":0.0017,"dx":0.0017,"nx":28,"ny":28,"refTime":"2025-02-24T09:00:00:Z","depth":0,"parameterNumber":3,"parameterNumberName":"V-component_of_WINDS"},"data":[0,0,0,0,0,0,0,0,0,0,0,0,0,0,0,0,0,0,0,0,0,0,0,0,0,0,0,0,0,0,0,0,0,0,0,0,0,0,0,0,0,0,0,0,0,0,0,0,0,0,0,0,0,0,0,0,0,0,-2.4814,-2.4815,0,-2.4937,-2.4939,-2.494,-2.4962,-2.4961,-2.496,-2.4959,-2.5084,-2.5089,-2.5093,0,0,0,0,0,0,0,0,0,0,0,0,0,-2.4598,-2.4602,-2.4814,-2.4815,-2.4817,-2.4937,-2.4939,-2.494,-2.4962,-2.4961,-2.4959,-2.4958,-2.5083,-2.5088,-2.5093,0,0,0,0,0,0,0,0,0,0,0,0,0,-2.4703,-2.4603,-2.4814,-2.4842,-2.4846,-2.4937,-2.4939,-2.4941,-2.4962,-2.4961,-2.4959,-2.4958,-2.5081,-2.5088,-2.5094,-2.5165,0,0,-2.5114,-2.5117,0,0,0,0,0,0,0,0,-2.4697,-2.4711,-2.4837,-2.484,-2.4845,-2.4933,-2.4909,-2.5016,-2.4963,-2.4918,-2.4959,-2.4957,-2.5035,-2.5045,-2.5072,-2.517,-2.5176,-2.5114,-2.5118,-2.5121,-2.5123,0,0,0,0,0,0,0,-2.469,-2.4706,-2.4863,-2.4838,-2.4843,-2.4849,-2.4862,-2.4929,-2.4984,-2.4922,-2.4924,-2.4938,-2.5037,-2.5065,-2.5075,-2.5178,-2.5114,-2.512,-2.5124,-2.5126,-2.5342,-2.5344,0,0,0,0,0,0,-2.4678,-2.47,-2.4859,-2.4866,-2.4766,-2.4854,-2.4869,-2.4906,-2.4983,-2.4993,-2.4939,-2.4939,-2.5055,-2.5067,-2.5079,-2.5168,-2.5121,-2.5127,-2.5131,-2.534,-2.5342,-2.5344,0,0,0,0,0,0,-2.4673,-2.4691,-2.4854,-2.4784,-2.4805,-2.486,-2.4901,-2.4909,-2.4938,-2.4996,-2.5006,-2.4958,-2.5055,-2.507,-2.5144,-2.5173,-2.513,-2.5136,-2.5338,-2.5341,-2.5343,-2.5346,0,0,0,0,0,0,-2.4666,-2.469,-2.4717,-2.4784,-2.4808,-2.4916,-2.4903,-2.4913,-2.4949,-2.4949,-2.5017,-2.5026,-2.5055,-2.5134,-2.515,-2.5181,-2.5141,-2.5336,-2.5339,-2.5342,-2.5343,-2.5348,-2.5352,0,0,0,0,0,-2.4659,-2.4712,-2.4718,-2.4737,-2.4844,-2.4917,-2.4931,-2.4963,-2.4951,-2.4979,-2.5017,-2.5024,-2.5167,-2.5141,-2.516,-2.5193,-2.5334,-2.5338,-2.5342,-2.5341,-2.5347,-2.5352,0,0,0,0,0,0,-2.4647,-2.4721,-2.4729,-2.4806,-2.4855,-2.4921,-2.4957,-2.4968,-2.5022,-2.502,-2.5056,-2.5072,-2.5143,-2.5175,-2.5145,-2.5266,-2.525,-2.5258,-2.5242,-2.5249,-2.5253,-2.5244,-2.5146,0,0,0,0,0,-2.4653,-2.4707,-2.4769,-2.4831,-2.4855,-2.4902,-2.4935,-2.4955,-2.5008,-2.5029,-2.5072,-2.5123,-2.5179,-2.5215,-2.527,-2.5348,-2.5363,-2.538,-2.5384,-2.5388,-2.5394,-2.5439,-2.5447,-2.5358,-2.5358,-2.5358,0,0,-2.4666,-2.4714,-2.4745,-2.483,-2.487,-2.4925,-2.4919,-2.4978,-2.5019,-2.5038,-2.511,-2.5143,-2.5202,-2.5278,-2.5314,-2.5307,-2.5423,-2.5393,-2.5395,-2.54,-2.5444,-2.5453,-2.546,-2.5361,-2.536,-2.536,0,0,-2.4719,-2.476,-2.4817,-2.4858,-2.492,-2.4951,-2.4964,-2.5029,-2.5052,-2.5125,-2.5141,-2.519,-2.5286,-2.5328,-2.5362,-2.5432,-2.5441,-2.5449,-2.5473,-2.5516,-2.5523,-2.5529,-2.5556,-2.5564,-2.5455,-2.5455,-2.5455,0,-2.4728,-2.4812,-2.4844,-2.4903,-2.494,-2.4959,-2.5017,-2.5056,-2.5132,-2.5157,-2.5149,-2.5271,-2.5312,-2.5398,-2.5415,-2.5442,-2.5459,-2.5441,-2.5519,-2.5526,-2.5533,-2.5558,-2.5568,-2.5456,-2.5456,-2.5456,-2.5456,0,-2.4821,-2.4878,-2.4917,-2.4991,-2.5032,-2.5089,-2.5131,-2.5169,-2.5186,-2.5217,-2.5292,-2.5342,-2.5408,-2.543,-2.5447,-2.552,-2.5514,-2.5512,-2.5496,-2.5541,-2.5566,-2.5576,-2.5457,-2.5456,-2.5456,-2.5456,0,0,-2.4869,-2.4961,-2.4975,-2.5009,-2.5079,-2.5125,-2.5183,-2.5248,-2.5281,-2.5333,-2.5384,-2.5465,-2.5464,-2.5502,-2.5524,-2.5561,-2.5615,-2.5555,-2.5557,-2.5566,-2.57,-2.5702,-2.5713,-2.5621,-2.5623,-2.5625,-2.5696,0,-2.4931,-2.5037,-2.5069,-2.5158,-2.5212,-2.5232,-2.5284,-2.5332,-2.5364,-2.5415,-2.5449,-2.5507,-2.5501,-2.5524,-2.5562,-2.5601,-2.5643,-2.5596,-2.567,-2.5672,-2.5656,-2.5725,-2.5727,-2.5792,-2.5705,-2.5707,-2.5708,0,-2.5018,-2.5072,-2.5167,-2.5231,-2.5255,-2.5301,-2.5364,-2.5412,-2.5468,-2.5488,-2.5532,-2.555,-2.5613,-2.5593,-2.5681,-2.5648,-2.568,-2.5704,-2.5707,-2.5716,-2.5693,-2.5737,-2.5813,-2.5823,-2.5723,-2.5722,-2.5721,0,-2.5045,-2.5142,-2.5212,-2.524,-2.5317,-2.5349,-2.5382,-2.5436,-2.5474,-2.5529,-2.5554,-2.5615,-2.5648,-2.5696,-2.573,-2.5713,-2.5816,-2.5798,-2.5835,-2.5834,-2.5856,-2.5855,-2.5939,-2.5875,-2.5875,-2.5875,-2.5875,0,-2.5112,-2.5169,-2.5225,-2.5268,-2.5333,-2.5369,-2.5433,-2.5467,-2.5515,-2.5566,-2.5586,-2.5633,-2.5676,-2.5728,-2.5756,-2.5825,-2.584,-2.5858,-2.5865,-2.5857,-2.5855,-2.588,-2.5876,-2.5877,-2.5877,-2.5876,-2.5876,0,-2.5154,-2.5194,-2.5271,-2.5337,-2.5355,-2.54,-2.5457,-2.55,-2.5532,-2.5596,-2.5613,-2.5663,-2.5727,-2.5766,-2.5846,-2.5864,-2.5941,-2.5945,-2.5922,-2.5926,-2.596,-2.5957,-2.6064,-2.6081,-2.6004,-2.6005,-2.6006,0,-2.5194,-2.5239,-2.531,-2.5346,-2.5379,-2.5436,-2.5474,-2.5511,-2.5551,-2.5618,-2.5653,-2.5718,-2.5771,-2.5871,-2.5916,-2.5977,-2.5985,-2.6018,-2.5994,-2.5985,-2.5987,-2.5984,-2.5989,-2.6022,-2.6023,-2.6023,-2.6024,0,-2.5262,-2.528,-2.5335,-2.5397,-2.5443,-2.5493,-2.5544,-2.5572,-2.5617,-2.5661,-2.5726,-2.5768,-2.585,-2.5914,-2.598,-2.6014,-2.6027,-2.6031,-2.6043,-2.6036,-2.6021,-2.6031,-2.5934,-2.6028,-2.6028,-2.6028,-2.6027,-2.6027,-2.5306,-2.5347,-2.5404,-2.5465,-2.5507,-2.5554,-2.5598,-2.5636,-2.5691,-2.5761,-2.5779,-2.5848,-2.5904,-2.5993,-2.6029,-2.6084,-2.6079,-2.6096,-2.6101,-2.6104,-2.6106,-2.6011,-2.6096,-2.6096,-2.6095,-2.6095,-2.6095,0,-2.5376,-2.5413,-2.5469,-2.554,-2.5588,-2.5595,-2.5652,-2.5692,-2.5752,-2.5803,-2.5856,-2.5931,-2.5994,-2.6044,-2.6108,-2.6142,-2.615,-2.6158,-2.6157,-2.6165,-2.6106,-2.6089,-2.6151,-2.6151,-2.6151,-2.6151,-2.6151,-2.6151,-2.5418,-2.5488,-2.5513,-2.5605,-2.5643,-2.571,-2.5742,-2.5786,-2.5827,-2.591,-2.5963,-2.5995,-2.6046,-2.6114,-2.6173,-2.6186,-2.6209,-2.6216,-2.6231,-2.6175,-2.6169,-2.6163,-2.6148,-2.6221,-2.6221,-2.6286,-2.6286,-2.6287]}]]